Weather in Macei贸

Brazil     9掳36鈥28鈥砈   35掳43鈥42鈥砏
temp.,
掳C
wind,
m/s
gust,
m/s
humid.,
%
clouds,
%
prec.,
mm/h
press.,
hPa
HPBL,
m
29 june, wed
wed2900:00+21wsw129564 0.5 101866
03:00+20wsw239857 1.7 101787
06:00+20wsw249855 0.8 1017108
09:00+24s368940 1.8 1018624
12:00+24sse368774 1.5 1017601
15:00+23sse269179 2.7 1015348
18:00+21s249410 0.3 101682
21:00+21ssw119553 0.4 101733
30 june, thu
thu3000:00+21sw119543 0.4 101628
03:00+21wsw119570 0.6 101531
06:00+21wsw129655 0.1 101644
09:00+23ssw139391 0.9 1017160
12:00+23se2594100 2.0 1015255
15:00+23se259597 4.5 1014213
18:00+22se1497100 3.2 1015115
21:00+22ese149885 6.4 1016135
1 july, fri
fri100:00+22se039881 3.4 1015117
03:00+22se029871 7.1 1014103
06:00+22se039849 3.4 1015138
09:00+24se479362 6.4 1017750
12:00+25se479057 2.4 1016839
15:00+24se479262 4.8 1014759
18:00+22ese399637 3.4 1016376
21:00+22ese27976 7.8 1017202
2 july, sat
sat200:00+22ese169714 6.1 1016192
03:00+22ese159731 11.9 1015181
06:00+22ese179712 6.9 1016212
09:00+24ese599127 12.8 1018756
12:00+25ese599052 3.1 1017893
15:00+24se599168 6.1 1016724
18:00+22se399415 1.7 1017305
21:00+22se39949 3.6 1019285
3 july, sun
sun300:00+22se269440 1.9 1018143
03:00+22se4109352 5.6 1017393
06:00+22se4119287 3.4 1018501
09:00+24se498333 4.1 1020960
12:00+27se476361 0.1 10191387
15:00+26se477621 0.5 10171111
18:00+22ese248812 0.1 1019109
21:00+22ese2592100 0.3 1020133